Вернуться в каталог

THORAD AGENA D DEB

АктивенPO
NORAD 42508·DEBRIS·🇺🇸 United States

Запущен Apr 8, 1970 с Vandenberg Space Force Base

Loading…

Ближайшие Пролёты (ближайшие 24 часа)

TLE

СвежийSource: Space-Track

Эпоха: Sep 13, 2026, 10:15 UTC

1 42508U 70025RN  26256.42750731  .00000319  00000-0  26662-3 0  9991
2 42508  99.8024 134.2077 0120809 103.1960 258.2708 13.92937394188523

Отслеживайте THORAD AGENA D DEB в реальном времени с AllMySat

Download on the App Store